Weather observations for the past three days for
Merced Regional Airport
Imperial (Metric)
Date Time (pdt) Wind (mph) Vis. (mi.) Weather Sky Cond. Temperature (ºF) Relative Humidity Wind Chill (°F) Heat Index (°F) Pressure Precipitation (in)
Air Dwpt 6 hour altimeter (in) sea level (mb) 1 hr 3 hr 6 hr
Max. Min.
12 20:53 N 12 10.00 Fair CLR 96.1 66 37% 100 29.7 1005.4
12 19:53 W 6 10.00 Fair CLR 99 63 31% 101 29.72 1006.3
12 18:53 NW 7 10.00 Fair CLR 102.9 57.9 23% 103 29.72 1006.3
12 17:53 NW 10 10.00 Fair CLR 109 59 20% 110 29.71 1005.9
12 16:53 NW 7 10.00 Fair CLR 109.9 59 109.9 98.1 19% 111 29.72 1006.2
12 15:53 NW 7 10.00 Fair CLR 108 55.9 18% 107 29.73 1006.7
12 14:53 Vrbl 5 10.00 Fair CLR 107.1 55.9 19% 106 29.75 1007.1
12 13:53 Calm 10.00 Fair CLR 104 57 21% 104 29.76 1007.5
12 12:53 Vrbl 6 10.00 Fair CLR 102.9 57 22% 102 29.77 1007.9
12 11:53 Vrbl 6 10.00 Fair CLR 100 55 22% 98 29.79 1008.4
12 10:53 NW 7 10.00 Fair CLR 98.1 53.1 98.1 73 22% 96 29.79 1008.6
12 09:53 NW 6 10.00 Fair CLR 93 55.9 29% 91 29.79 1008.6
12 08:53 Calm 10.00 Fair CLR 88 52 29% 86 29.8 1009.0
12 07:53 NW 3 10.00 Fair CLR 82 54 38% 81 29.79 1008.6
12 06:53 NW 3 10.00 Fair CLR 78.1 53.1 42% 79 29.78 1008.1
12 05:53 N 5 10.00 Fair CLR 73 57 57% 29.77 1007.8
12 04:53 W 5 10.00 Fair CLR 73.9 57 84.9 73.9 56% 29.76 1007.5
12 03:53 SW 6 10.00 Fair CLR 75 61 62% 77 29.75 1007.2
12 02:53 NW 5 10.00 Fair CLR 79 55 44% 80 29.74 1007.0
12 01:53 W 3 10.00 Fair CLR 79 57 47% 80 29.76 1007.5
12 00:53 W 3 10.00 Fair CLR 80.1 55.9 44% 80 29.77 1007.8
11 23:53 W 8 10.00 Fair CLR 82 54 38% 81 29.77 1007.9
11 22:53 W 3 10.00 Fair CLR 84.9 54 111 84.9 35% 83 29.77 1007.9
11 21:53 W 7 10.00 Fair CLR 88 57.9 36% 87 29.76 1007.5
11 20:53 Calm 10.00 Fair CLR 95 64 36% 97 29.75 1007.1
11 19:53 NW 7 10.00 Fair CLR 99 63 31% 101 29.74 1006.8
11 18:53 NW 7 10.00 Fair CLR 107.1 57.9 20% 107 29.73 1006.5
11 17:53 N 8 10.00 Fair CLR 109.9 54 16% 108 29.73 1006.5
11 16:53 N 9 10.00 Fair CLR 109.9 46 111 96.1 12% 106 29.74 1007.0
11 15:53 NW 7 10.00 Fair CLR 109 51.1 15% 106 29.75 1007.3
11 14:53 NW 8 10.00 Fair CLR 108 57 19% 108 29.77 1008.0
11 13:53 N 5 10.00 Fair CLR 106 59 21% 107 29.8 1008.8
11 12:53 NW 5 10.00 Fair CLR 102.9 60.1 24% 104 29.81 1009.2
11 11:53 Vrbl 3 10.00 Fair CLR 100 55.9 23% 99 29.83 1009.8
11 10:53 NW 6 10.00 Fair CLR 96.1 57.9 96.1 70 28% 95 29.82 1009.7
11 09:53 NW 5 10.00 Fair CLR 91 59 34% 90 29.83 1009.9
11 08:53 Calm 10.00 Fair CLR 86 61 43% 86 29.83 1009.8
11 07:53 Calm 10.00 Fair CLR 80.1 62.1 54% 81 29.82 1009.6
11 06:53 Calm 8.00 Fair CLR 75 60.1 60% 77 29.8 1009.0
11 05:53 Calm 10.00 Fair CLR 72 61 68% 29.79 1008.7
11 04:53 Calm 10.00 Fair CLR 72 62.1 84 72 71% 29.79 1008.6
11 03:53 Calm 10.00 Fair CLR 75 62.1 64% 77 29.78 1008.4
11 02:53 Calm 9.00 Fair CLR 77 62.1 60% 79 29.79 1008.5
11 01:53 Calm 10.00 Fair CLR 78.1 63 60% 80 29.79 1008.6
11 00:53 W 3 10.00 Fair CLR 80.1 64 58% 82 29.79 1008.7
10 23:53 W 3 10.00 Fair CLR 81 64.9 58% 83 29.8 1008.7
10 22:53 Calm 10.00 Fair CLR 84 64.9 106 81 53% 86 29.79 1008.7
10 21:53 Calm 10.00 Fair CLR 86 62.1 45% 87 29.78 1008.2
10 20:53 NW 3 10.00 Fair CLR 90 61 38% 90 29.77 1007.8
10 19:53 NW 7 10.00 Fair CLR 93.9 59 31% 93 29.76 1007.6
10 18:53 N 9 10.00 Fair CLR 102 57.9 23% 102 29.76 1007.5
10 17:53 NW 8 10.00 Fair CLR 105.1 52 17% 103 29.76 1007.7
10 16:53 NW 7 10.00 Fair CLR 105.1 55.9 105.1 88 20% 104 29.77 1008.0
10 15:53 NW 7 10.00 Fair CLR 104 57.9 22% 104 29.79 1008.5
10 14:53 NW 7 10.00 Fair CLR 102 55.9 22% 101 29.81 1009.2
10 13:53 W 6 10.00 Fair CLR 99 59 27% 99 29.82 1009.6
10 12:53 NW 6 10.00 Fair CLR 96.1 60.1 30% 96 29.84 1010.2
10 11:53 N 6 10.00 Fair CLR 93 59 32% 92 29.85 1010.6
10 10:53 NW 8 10.00 Fair CLR 88 59 88 66.9 38% 87 29.85 1010.7
10 09:53 NW 7 10.00 Fair CLR 82.9 59 44% 83 29.86 1010.9
10 08:53 N 9 10.00 Fair CLR 78.1 57.9 50% 79 29.85 1010.7
10 07:53 N 8 10.00 Fair CLR 73 57.9 59% 29.84 1010.2
10 06:53 NW 6 10.00 Fair CLR 69.1 59 70% 29.82 1009.6
10 05:53 NW 8 10.00 Fair CLR 66.9 57.9 73% 29.81 1009.1
10 04:53 NW 5 10.00 Fair CLR 68 59 80.1 68 73% 29.79 1008.6
10 03:53 NW 5 10.00 Fair CLR 69.1 59 70% 29.79 1008.4
10 02:53 NW 7 10.00 Fair CLR 71.1 59 66% 29.78 1008.3
10 01:53 NW 6 10.00 Fair CLR 73 60.1 64% 29.79 1008.4
10 00:53 NW 7 10.00 Fair CLR 73 62.1 69% 29.79 1008.7
09 23:53 W 3 10.00 Fair CLR 77 64 64% 79 29.79 1008.5
09 22:53 W 3 10.00 Fair CLR 80.1 64 102.9 80.1 58% 82 29.78 1008.4
09 21:53 N 8 10.00 Fair CLR 82.9 61 48% 83 29.77 1008.0
Date Time (pdt) Wind (mph) Vis. (mi.) Weather Sky Cond. Air Dwpt Max. Min. Relative Humidity Wind Chill (°F) Heat Index (°F) altimeter (in) sea level (mb) 1 hr 3 hr 6 hr
6 hour
Temperature (ºF) Pressure Precipitation (in)